sat.trackr.live / text

‹ back to catalog

COSMOS 2530 (RODNIK-S *)

NORAD 43751 · 2018-097A

PAYLOAD ACTIVE UNKNOWN

§ Identity

Operator
Country
CIS
Launch date
2018-11-30
Launch site
PLMSC
Launch vehicle
Mass (kg)
RCS (m²)

External: N2YO · Heavens-Above · Gunter

§ Orbital elements

Epoch: 2026-05-25T04:38:37.058208Z

Period
115.86 min
Inclination
82.5147°
Eccentricity
0.0020759
Mean motion
12.42881040 rev/d
Perigee alt
1,478.1 km
Apogee alt
1,510.8 km
Semi-major
7,872.6 km
B*
4.5128e-4
RAAN
236.5490°
Arg perigee
87.6073°
Mean anomaly
272.7383°
Rev number
33,943

§ Raw data

COSMOS 2530 (RODNIK-S *)1 43751U 18097A   26145.19348447  .00000073  00000+0  45128-3 0  99952 43751  82.5147 236.5490 0020759  87.6073 272.7383 12.42881040339436

JSON: /api/v1/satellites/43751 · /tle

For live sub-satellite position, see the globe view (requires WebGL).

§ Visibility from observer

Set your observer location to see the next 7 days of passes ≥ 10°. The values pass through the URL so the page stays shareable.

No JS? Fill the form by hand. The geolocation button needs JavaScript.

§ Radio — SatNOGS DB

ModeDescriptionDownlinkUplink
FM UHF Unknown 387.175 MHz
FM UHF Unknown 388.687 MHz

2 transmitters · refreshed weekly from db.satnogs.org